Weather History for KY19 - July, 2013

Change the Weather History Date:

Sunday, July 21, 2013

  Actual Average (KBIS) Record (KBIS)
Temperature  
Mean Temperature 70 °F 72 °F  
Max Temperature 86 °F 86 °F 104 °F (1921)
Min Temperature 55 °F 58 °F 42 °F (1947)
Degree Days  
Heating Degree Days 0 0  
Month to date heating degree days 13  
Since 1 June heating degree days 106  
Since 1 July heating degree days 13  
Cooling Degree Days 6 7  
Month to date cooling degree days 130  
Year to date cooling degree days 230  
Since 1 June cooling degree days 213  
Growing Degree Days 20 (Base 50)    
Moisture  
Dew Point 61 °F    
Average Humidity 83    
Maximum Humidity 100    
Minimum Humidity 45    
Precipitation  
Precipitation 0.29 in 0.09 in 1.65 in (2000)
Month to date precipitation 2.03  
Year to date precipitation 10.67  
Snow  
Snow 0.00 in 0.00 in 0.00 in (2002)
Month to date snowfall 0.0  
Since 1 June snowfall 0.0  
Since 1 July snowfall 0.0  
Snow Depth -    
Sea Level Pressure  
Sea Level Pressure 29.83 in    
Wind  
Wind Speed 9 mph (SE)    
Max Wind Speed 23 mph    
Max Gust Speed 37 mph    
Visibility 10 miles    
Events Rain , Thunderstorm    
T = Trace of Precipitation, MM = Missing Value Source: NWS Daily Summary

Daily Weather History Graph

Daily Weather History Graph

Search for Another Location

Airport or City:

Trip Planner

Search our weather history database for the weather conditions in past years. The results will help you decide how hot, cold, wet, or windy it might be!

Date:

Astronomy

Jul. 21, 2013 Rise Set
Actual Time 6:11 AM CDT 9:28 PM CDT
Civil Twilight 5:34 AM CDT 10:04 PM CDT
Nautical Twilight 4:46 AM CDT 10:52 PM CDT
Astronomical Twilight 3:44 AM CDT 11:53 PM CDT
Moon 8:24 PM CDT (7/21) 5:00 AM CDT (7/21)
Length of Visible Light 16h 30m
Length of Day
15h 16m
Waxing Gibbous, 98% of the Moon is Illuminated
Jul 21
Waxing Gibbous
Jul 22
Full
Jul 29
Last Quarter
Aug 6
New
Aug 14
First Quarter

Hourly Weather History & Observations

Time (CDT) Temp. Heat Index Dew Point Humidity Pressure Visibility Wind Dir Wind Speed Gust Speed Precip Events Conditions
12:15 AM 59.0 °F - 59.0 °F 100% 29.96 in 10.0 mi East 8.1 mph - N/A   Clear
12:35 AM 59.0 °F - 57.2 °F 94% 29.97 in 10.0 mi East 8.1 mph - N/A   Clear
12:55 AM 59.0 °F - 57.2 °F 94% 29.98 in 10.0 mi East 8.1 mph - N/A   Mostly Cloudy
1:15 AM 57.2 °F - 57.2 °F 100% 29.97 in 10.0 mi ESE 6.9 mph - N/A   Overcast
1:35 AM 57.2 °F - 57.2 °F 100% 29.97 in 10.0 mi ESE 8.1 mph - N/A   Mostly Cloudy
1:55 AM 57.2 °F - 57.2 °F 100% 29.96 in 10.0 mi East 6.9 mph - N/A   Partly Cloudy
2:15 AM 57.2 °F - 57.2 °F 100% 29.96 in 10.0 mi East 4.6 mph - N/A   Mostly Cloudy
2:35 AM 57.2 °F - 57.2 °F 100% 29.95 in 10.0 mi ESE 6.9 mph - N/A   Mostly Cloudy
2:55 AM 57.2 °F - 57.2 °F 100% 29.95 in 10.0 mi East 6.9 mph - N/A   Mostly Cloudy
3:15 AM 57.2 °F - 57.2 °F 100% 29.94 in 10.0 mi ESE 8.1 mph - N/A   Overcast
3:35 AM 57.2 °F - 57.2 °F 100% 29.94 in 10.0 mi East 6.9 mph - N/A   Overcast
3:55 AM 57.2 °F - 57.2 °F 100% 29.94 in 10.0 mi East 8.1 mph - N/A   Overcast
4:15 AM 57.2 °F - 57.2 °F 100% 29.94 in 10.0 mi East 5.8 mph - N/A   Overcast
4:35 AM 57.2 °F - 57.2 °F 100% 29.93 in 10.0 mi East 6.9 mph - N/A   Overcast
4:55 AM 57.2 °F - 57.2 °F 100% 29.92 in 10.0 mi East 6.9 mph - N/A   Overcast
5:15 AM 57.2 °F - 57.2 °F 100% 29.92 in 10.0 mi East 8.1 mph - N/A   Overcast
5:35 AM 55.4 °F - 55.4 °F 100% 29.91 in 10.0 mi ESE 10.4 mph - N/A   Mostly Cloudy
5:55 AM 55.4 °F - 55.4 °F 100% 29.91 in 10.0 mi ESE 8.1 mph - N/A   Mostly Cloudy
6:15 AM 55.4 °F - 55.4 °F 100% 29.91 in 10.0 mi ESE 9.2 mph - N/A   Scattered Clouds
6:35 AM 55.4 °F - 55.4 °F 100% 29.92 in 10.0 mi East 8.1 mph - N/A   Partly Cloudy
6:55 AM 55.4 °F - 55.4 °F 100% 29.92 in 10.0 mi East 8.1 mph - N/A   Scattered Clouds
7:15 AM 57.2 °F - 57.2 °F 100% 29.91 in 10.0 mi East 10.4 mph - N/A   Overcast
7:35 AM 57.2 °F - 57.2 °F 100% 29.91 in 10.0 mi ESE 10.4 mph - N/A   Overcast
7:55 AM 57.2 °F - 57.2 °F 100% 29.91 in 10.0 mi ESE 9.2 mph - N/A   Overcast
8:15 AM 57.2 °F - 57.2 °F 100% 29.91 in 10.0 mi ESE 8.1 mph - N/A   Overcast
8:35 AM 59.0 °F - 59.0 °F 100% 29.91 in 10.0 mi SE 6.9 mph - N/A   Overcast
8:55 AM 59.0 °F - 59.0 °F 100% 29.91 in 10.0 mi SE 8.1 mph - N/A   Overcast
9:15 AM 62.6 °F - 59.0 °F 88% 29.90 in 10.0 mi ESE 10.4 mph - N/A   Overcast
9:35 AM 62.6 °F - 59.0 °F 88% 29.89 in 10.0 mi ESE 11.5 mph - N/A   Mostly Cloudy
9:55 AM 64.4 °F - 59.0 °F 83% 29.88 in 10.0 mi SE 10.4 mph - N/A   Clear
10:15 AM 66.2 °F - 59.0 °F 78% 29.88 in 10.0 mi SE 11.5 mph - N/A   Clear
10:35 AM 66.2 °F - 60.8 °F 83% 29.87 in 10.0 mi SE 10.4 mph - N/A   Clear
10:55 AM 68.0 °F - 62.6 °F 83% 29.87 in 10.0 mi SE 11.5 mph 16.1 mph N/A   Clear
11:15 AM 69.8 °F - 62.6 °F 78% 29.86 in 10.0 mi SE 11.5 mph - N/A   Clear
11:35 AM 73.4 °F - 62.6 °F 69% 29.85 in 10.0 mi SSE 8.1 mph 16.1 mph N/A   Clear
11:55 AM 75.2 °F - 64.4 °F 69% 29.84 in 10.0 mi SSE 10.4 mph 16.1 mph N/A   Clear
12:15 PM 75.2 °F - 64.4 °F 69% 29.83 in 10.0 mi SSE 11.5 mph 16.1 mph N/A   Clear
1:15 PM 80.6 °F 82.3 °F 64.4 °F 58% 29.80 in 10.0 mi SE 13.8 mph - N/A   Clear
1:35 PM 80.6 °F 82.3 °F 64.4 °F 58% 29.79 in 10.0 mi SSE 15.0 mph 19.6 mph N/A   Clear
1:55 PM 82.4 °F 83.4 °F 62.6 °F 51% 29.79 in 10.0 mi South 11.5 mph 19.6 mph N/A   Clear
2:15 PM 82.4 °F 83.4 °F 62.6 °F 51% 29.78 in 10.0 mi SE 11.5 mph 19.6 mph N/A   Clear
2:35 PM 84.2 °F 85.0 °F 62.6 °F 48% 29.77 in 10.0 mi South 11.5 mph - N/A   Clear
2:55 PM 84.2 °F 85.0 °F 62.6 °F 48% 29.76 in 10.0 mi SSE 13.8 mph 19.6 mph N/A   Clear
3:15 PM 84.2 °F 85.0 °F 62.6 °F 48% 29.76 in 10.0 mi South 11.5 mph 20.7 mph N/A   Clear
3:35 PM 86.0 °F 86.6 °F 62.6 °F 45% 29.75 in 10.0 mi SSE 15.0 mph 19.6 mph N/A   Clear
3:55 PM 86.0 °F 86.6 °F 62.6 °F 45% 29.73 in 10.0 mi South 13.8 mph 21.9 mph N/A   Clear
4:15 PM 86.0 °F 86.6 °F 62.6 °F 45% 29.72 in 10.0 mi SSE 16.1 mph 21.9 mph N/A   Clear
4:35 PM 84.2 °F 85.0 °F 62.6 °F 48% 29.70 in 10.0 mi South 17.3 mph 23.0 mph N/A   Clear
4:55 PM 84.2 °F 85.0 °F 62.6 °F 48% 29.72 in 10.0 mi South 10.4 mph 21.9 mph N/A   Clear
5:15 PM 82.4 °F 82.9 °F 60.8 °F 48% 29.71 in 10.0 mi South 11.5 mph 20.7 mph N/A   Clear
5:35 PM 82.4 °F 83.4 °F 62.6 °F 51% 29.71 in 10.0 mi South 9.2 mph - N/A   Clear
5:55 PM 80.6 °F 82.3 °F 64.4 °F 58% 29.70 in 10.0 mi SE 6.9 mph - N/A Thunderstorm Clear
6:15 PM 80.6 °F 82.3 °F 64.4 °F 58% 29.73 in 10.0 mi ESE 8.1 mph - N/A Thunderstorm Thunderstorm
6:35 PM 80.6 °F 81.5 °F 60.8 °F 51% 29.63 in 10.0 mi SE 19.6 mph 29.9 mph N/A Thunderstorm Mostly Cloudy
6:55 PM 77.0 °F - 64.4 °F 65% 29.66 in 9.0 mi SSE 5.8 mph - N/A Rain , Thunderstorm Light Rain
7:15 PM 71.6 °F - 68.0 °F 88% 29.77 in 3.0 mi NNW 23.0 mph 36.8 mph 0.12 in Rain , Thunderstorm Light Thunderstorms and Rain
7:35 PM 68.0 °F - 68.0 °F 100% 29.72 in 10.0 mi East 13.8 mph 20.7 mph 0.29 in Rain , Thunderstorm Light Rain
7:55 PM 68.0 °F - 68.0 °F 100% 29.72 in 10.0 mi SE 6.9 mph - 0.29 in   Scattered Clouds
8:15 PM 68.0 °F - 68.0 °F 100% 29.72 in 10.0 mi SSE 11.5 mph 17.3 mph N/A   Mostly Cloudy
8:35 PM 68.0 °F - 68.0 °F 100% 29.71 in 10.0 mi South 11.5 mph - N/A   Mostly Cloudy
8:55 PM 71.6 °F - 68.0 °F 88% 29.71 in 10.0 mi South 10.4 mph - N/A   Mostly Cloudy
9:15 PM 71.6 °F - 66.2 °F 83% 29.71 in 10.0 mi South 11.5 mph 16.1 mph N/A   Partly Cloudy
9:35 PM 71.6 °F - 66.2 °F 83% 29.72 in 10.0 mi SSW 8.1 mph - N/A   Partly Cloudy
9:55 PM 69.8 °F - 68.0 °F 94% 29.75 in 10.0 mi West 9.2 mph - N/A   Clear
10:15 PM 68.0 °F - 68.0 °F 100% 29.77 in 10.0 mi WNW 11.5 mph - N/A   Clear
10:35 PM 69.8 °F - 66.2 °F 88% 29.78 in 10.0 mi NW 11.5 mph - N/A   Clear
10:55 PM 69.8 °F - 68.0 °F 94% 29.79 in 10.0 mi NW 11.5 mph - N/A   Scattered Clouds
11:15 PM 68.0 °F - 66.2 °F 94% 29.79 in 10.0 mi NNW 11.5 mph - N/A   Mostly Cloudy
11:35 PM 68.0 °F - 64.4 °F 88% 29.79 in 10.0 mi NNW 13.8 mph - N/A   Overcast
11:55 PM 68.0 °F - 64.4 °F 88% 29.80 in 10.0 mi NW 11.5 mph - N/A   Mostly Cloudy